TSP Talk
logout   logout
Contact Us | Logout
     
March 30, 2017, 4:33 pm (ET / EDT)
TSP Talk Market Comments TSP AutoTracker Premiums Site Map TSP Funds Forum Returns

                 
Tracker Main Menu | Tracker Member Menu | My IFT Records | How to Get Started | Email Updates
                 

Members ranking and current allocation as of: 2017-03-29 (COB)

Press Go back to the previous page   

View a specific date "yyyy-mm-dd"

Underlined column headings can be sorted
Rank Username YTD Returns MTD Returns Start Date
1 smitmw 8.58 % 2.76 % 2017-01-01
2 tom1tom1 8.06 % 2.01 % 2017-01-01
3 crispy 7.80 % 3.29 % 2017-01-01
4 judochop 7.80 % ** 3.29 % 2017-01-01
5 I-fund 7.80 % 3.29 % 2017-01-01
6 nightlite 7.80 % ** 3.29 % 2017-01-01
7 jrutherford2 7.80 % ** 3.29 % 2017-01-01
8 malyla 7.80 % ** 3.29 % 2017-01-01
9 DCKevin 7.80 % ** 3.29 % 2017-01-01
10 2GodBtheGLORY 7.80 % ** 3.29 % 2017-01-01
11 BearTrap 7.80 % ** 3.29 % 2017-01-01
12 jajo1554 7.80 % ** 3.29 % 2017-01-01
13 Kahuna6969 7.80 % ** 3.29 % 2017-01-01
14 SavyNeal 7.80 % ** 3.29 % 2017-01-01
15 Sunnyday 7.80 % ** 3.29 % 2017-01-01
16 Shawhardy 7.80 % ** 3.29 % 2017-01-01
17 RDJ67 7.69 % 2.98 % 2017-01-01
18 Aviator_Guy 7.58 % 1.57 % 2017-01-01
19 Birchtree 7.29 % ** 2.35 % 2017-01-01
20 RV7 6.99 % ** 1.65 % 2017-01-01
21 lbeeba8862 6.90 % ** 1.66 % 2017-01-01
22 robertbr1963 6.89 % ** 1.63 % 2017-01-01
23 cyoa1fan 6.43 % 2.22 % 2017-01-01
24 meltuna 6.41 % 2.46 % 2017-01-01
25 brentmc 6.29 % ** 0.88 % 2017-01-01
26 andy 6.29 % ** 0.57 % 2017-01-01
27 Sports_Night 6.27 % ** 1.33 % 2017-01-01
28 sonyctx 6.27 % ** 1.33 % 2017-01-01
29 sdidieu 6.26 % ** 0.51 % 2017-01-01
30 bdmkg 6.24 % -0.36 % 2017-01-01
31 jmtz54 6.22 % 0.39 % 2017-01-01
32 BigLair 6.12 % ** 0.36 % 2017-01-01
33 dunwichman 6.09 % ** 1.52 % 2017-01-01
34 Tot_Global_Mkt 6.07 % ** 0.94 % 2017-01-01
35 Skip 6.04 % 1.25 % 2017-01-01
36 bloodbath 6.03 % ** 0.42 % 2017-01-01
37 lifeasrxd 6.03 % ** 0.74 % 2017-01-01
38 BigMike 6.00 % 0.05 % 2017-01-01
39 berg1315 6.00 % 0.05 % 2017-01-01
40 xsoljuhxpnoi929 6.00 % ** 0.05 % 2017-01-01
41 C-fund 6.00 % 0.05 % 2017-01-01
42 Kayakfish 6.00 % ** 0.05 % 2017-01-01
43 JTH 6.00 % ** 0.05 % 2017-01-01
44 JTH-ALPAFS 6.00 % ** 0.05 % 2017-01-01
45 JTH-ESD 6.00 % ** 0.05 % 2017-01-01
46 MMAC_POPS 6.00 % ** 0.05 % 2017-01-01
47 cthomas946 6.00 % ** 0.05 % 2017-01-01
48 agogley 6.00 % ** 0.05 % 2017-01-01
49 brobrash 6.00 % ** 0.05 % 2017-01-01
50 ranma143 6.00 % ** 0.05 % 2017-01-01
Rank Username YTD Returns MTD Returns Start Date
51 Lucky91 6.00 % ** 0.05 % 2017-01-01
52 Mack-Daddy 6.00 % ** 0.05 % 2017-01-01
53 Sarchie 6.00 % ** 0.05 % 2017-01-01
54 Devilduck 6.00 % ** 0.05 % 2017-01-01
55 HotRod 6.00 % ** 0.05 % 2017-01-01
56 Jrgruters42 6.00 % ** 0.05 % 2017-01-01
57 BLPinDC 6.00 % ** 0.05 % 2017-01-01
58 CheckRaze 6.00 % ** 0.05 % 2017-01-01
59 Heisenberg 6.00 % ** 0.05 % 2017-01-01
60 jssmith58 6.00 % ** 0.05 % 2017-01-01
61 leadoff2 6.00 % ** 0.05 % 2017-01-01
62 MadMoneyJesse 6.00 % ** 0.05 % 2017-01-01
63 melandblue 6.00 % ** 0.05 % 2017-01-01
64 mepage 6.00 % ** 0.05 % 2017-01-01
65 messimoves 6.00 % ** 0.05 % 2017-01-01
66 MOVINUP 6.00 % ** 0.05 % 2017-01-01
67 pcola5625 6.00 % ** 0.05 % 2017-01-01
68 ShadowAx 6.00 % ** 0.05 % 2017-01-01
69 Sirius 6.00 % ** 0.05 % 2017-01-01
70 squid3326 6.00 % ** 0.05 % 2017-01-01
71 TheRealEDtheFED 6.00 % ** 0.05 % 2017-01-01
72 Cheng 5.99 % ** 0.99 % 2017-01-01
73 ChuckH 5.98 % 1.98 % 2017-01-01
74 Mantonelli 5.95 % 2.11 % 2017-01-01
75 ken863 5.95 % 0.00 % 2017-01-01
76 invisiblebutterknife 5.94 % ** 0.24 % 2017-01-01
77 siidman 5.93 % 1.97 % 2017-01-01
78 lartra 5.93 % 0.82 % 2017-01-01
79 fishhead 5.93 % ** 0.64 % 2017-01-01
80 TXTornados 5.90 % 0.61 % 2017-01-01
81 wwwtractor 5.88 % ** 0.47 % 2017-01-01
82 OnTarget 5.87 % 1.69 % 2017-01-01
83 krempajs 5.87 % ** 0.84 % 2017-01-01
84 dodgerblioux 5.87 % ** 0.43 % 2017-01-01
85 danie906 5.86 % ** 0.55 % 2017-01-01
86 furafura 5.86 % ** 0.56 % 2017-01-01
87 rch8710 5.86 % ** 0.40 % 2017-01-01
88 CRUSHER 5.85 % ** 0.38 % 2017-01-01
89 thebreen 5.83 % ** 1.25 % 2017-01-01
90 markmars 5.83 % ** 0.66 % 2017-01-01
91 american42 5.83 % ** 0.69 % 2017-01-01
92 waveman43 5.83 % ** 0.71 % 2017-01-01
93 etawx 5.83 % ** 0.54 % 2017-01-01
94 Forecaster 5.82 % ** 0.52 % 2017-01-01
95 hg1866 5.81 % ** 0.66 % 2017-01-01
96 hawktecc1 5.81 % ** 0.73 % 2017-01-01
97 tshare999 5.79 % ** 0.63 % 2017-01-01
98 Ghageman 5.77 % ** 0.44 % 2017-01-01
99 misg4420 5.76 % ** 0.89 % 2017-01-01
100 dctarheel 5.76 % ** 0.67 % 2017-01-01
Rank Username YTD Returns MTD Returns Start Date
101 GFundBaby 5.76 % ** 0.68 % 2017-01-01
102 Hodster 5.75 % 0.66 % 2017-01-01
103 arhodie 5.74 % 0.33 % 2017-01-01
104 Moore 5.73 % ** 0.64 % 2017-01-01
105 crazyjames 5.73 % ** 0.73 % 2017-01-01
106 Renegade 5.72 % 0.62 % 2017-01-01
107 millstadt05 5.71 % ** 0.61 % 2017-01-01
108 cojo1988 5.71 % ** 0.62 % 2017-01-01
109 EdwardSF 5.70 % ** 0.44 % 2017-01-01
110 flashmanxx 5.70 % ** 0.61 % 2017-01-01
111 rdsox05 5.70 % ** 1.12 % 2017-01-01
112 fluffypotato 5.69 % ** 0.64 % 2017-01-01
113 STCjUnKie 5.69 % ** 1.12 % 2017-01-01
114 bozdog 5.69 % ** 1.12 % 2017-01-01
115 usfwsduckriverman 5.69 % ** 0.23 % 2017-01-01
116 noclue 5.68 % 0.57 % 2017-01-01
117 Lester130 5.68 % 0.83 % 2017-01-01
118 LAT 5.68 % -0.77 % 2017-01-01
119 doge1976 5.65 % 0.19 % 2017-01-01
120 arquintana 5.65 % ** 0.76 % 2017-01-01
121 guahan96 5.65 % ** 0.54 % 2017-01-01
122 RoldanFam 5.64 % ** 1.13 % 2017-01-01
123 PICK68 5.61 % ** 0.58 % 2017-01-01
124 JPW77 5.60 % ** 1.02 % 2017-01-01
125 glysergt 5.59 % 0.03 % 2017-01-01
126 Short 5.59 % ** 0.22 % 2017-01-01
127 sarriola 5.58 % ** 0.75 % 2017-01-01
128 1crazyfatboy 5.57 % ** 0.99 % 2017-01-01
129 pokerstar629 5.56 % 0.64 % 2017-01-01
130 bailemi 5.56 % 0.05 % 2017-01-01
131 Pill 5.56 % ** 0.54 % 2017-01-01
132 Kong13 5.55 % ** 0.51 % 2017-01-01
133 spinslight1 5.55 % ** 0.51 % 2017-01-01
134 temptec 5.54 % ** 0.80 % 2017-01-01
135 bjean 5.53 % -0.91 % 2017-01-01
136 Ozzy_357924 5.53 % 0.55 % 2017-01-01
137 cook79768 5.53 % ** 0.43 % 2017-01-01
138 galaxy101 5.52 % 1.30 % 2017-01-01
139 dillpickle * 5.52 % ** 3.29 % 2017-01-13
140 mboja 5.52 % ** 0.94 % 2017-01-01
141 Spydercop 5.51 % ** 0.38 % 2017-01-01
142 redman1970 5.51 % ** 0.37 % 2017-01-01
143 jason011235813 5.51 % ** 0.68 % 2017-01-01
144 maverick06 5.49 % -0.20 % 2017-01-01
145 lawnman 5.49 % ** 0.91 % 2017-01-01
146 almostdone 5.48 % ** -0.15 % 2017-01-01
147 bcf0514 5.47 % ** -0.15 % 2017-01-01
148 Gethers 5.47 % ** 0.97 % 2017-01-01
149 Mista_Magee 5.46 % -0.45 % 2017-01-01
150 Macgyva 5.46 % ** 0.30 % 2017-01-01
Rank Username YTD Returns MTD Returns Start Date
151 BirchNWS 5.45 % ** 0.29 % 2017-01-01
152 Elktracker 5.43 % ** 0.29 % 2017-01-01
153 nicole5001 5.42 % ** 0.29 % 2017-01-01
154 BessMan94 5.41 % ** 0.22 % 2017-01-01
155 iyoung 5.40 % 0.49 % 2017-01-01
156 petersons 5.40 % ** 0.33 % 2017-01-01
157 Knight25 5.40 % ** 0.33 % 2017-01-01
158 grube00 5.40 % ** 0.54 % 2017-01-01
159 BrandesValue 5.39 % ** 0.35 % 2017-01-01
160 evchau 5.39 % ** 0.01 % 2017-01-01
161 evimoore 5.39 % ** 0.22 % 2017-01-01
162 workdamnit 5.37 % ** 0.05 % 2017-01-01
163 dlb11693 5.35 % ** 0.49 % 2017-01-01
164 Craigart 5.35 % ** -0.20 % 2017-01-01
165 dtrax 5.35 % ** 0.18 % 2017-01-01
166 GWXX 5.35 % ** -0.20 % 2017-01-01
167 texaggies89 5.34 % 0.18 % 2017-01-01
168 DistributionKiller 5.32 % 3.29 % 2017-01-01
169 revel 5.32 % 0.08 % 2017-01-01
170 deward 5.31 % ** 0.42 % 2017-01-01
171 tsclippinger 5.30 % ** 0.52 % 2017-01-01
172 UCFVern 5.29 % 0.61 % 2017-01-01
173 Beamer 5.29 % 0.62 % 2017-01-01
174 rgncajun68 5.28 % ** 0.01 % 2017-01-01
175 soupykid 5.27 % 0.37 % 2017-01-01
176 Highroller 5.27 % 0.23 % 2017-01-01
177 uf_rjeezy 5.26 % 0.98 % 2017-01-01
178 WallStreet 5.26 % -0.19 % 2017-01-01
179 trobbi33 5.26 % ** -0.23 % 2017-01-01
180 jswright 5.25 % ** 0.28 % 2017-01-01
181 L2050 5.25 % 0.75 % 2017-01-01
182 tashabh 5.25 % ** 0.75 % 2017-01-01
183 biomedrick 5.25 % ** 0.75 % 2017-01-01
184 Jayt23 5.25 % ** 0.75 % 2017-01-01
185 Caith 5.25 % ** 0.75 % 2017-01-01
186 Kjay 5.25 % ** 0.75 % 2017-01-01
187 gio20 5.25 % ** 0.75 % 2017-01-01
188 93GT 5.25 % ** 0.75 % 2017-01-01
189 doug.hornback 5.25 % ** 0.75 % 2017-01-01
190 khunk 5.25 % ** 0.75 % 2017-01-01
191 qbcall11 5.25 % ** 0.75 % 2017-01-01
192 sapfm 5.25 % ** 0.29 % 2017-01-01
193 Shivers 5.25 % ** 0.75 % 2017-01-01
194 Wrngway 5.25 % ** 0.75 % 2017-01-01
195 DesertBoots77 5.25 % ** 0.75 % 2017-01-01
196 jsmiles 5.24 % 0.08 % 2017-01-01
197 smiles 5.24 % 0.08 % 2017-01-01
198 towncop1978 5.24 % 0.66 % 2017-01-01
199 jdeacon 5.23 % 0.31 % 2017-01-01
200 aminze 5.22 % ** 0.63 % 2017-01-01
Rank Username YTD Returns MTD Returns Start Date
201 Sniki 5.22 % ** -0.02 % 2017-01-01
202 Boozin1 5.21 % ** 0.21 % 2017-01-01
203 janemattress711 5.19 % 0.77 % 2017-01-01
204 bombnav1 5.19 % ** 0.17 % 2017-01-01
205 kmx23 5.19 % ** 0.15 % 2017-01-01
206 RookieInvestor 5.19 % ** 0.18 % 2017-01-01
207 fedgolfer 5.18 % 0.10 % 2017-01-01
208 rebel346 5.18 % 0.31 % 2017-01-01
209 IceJoe 5.18 % ** 0.14 % 2017-01-01
210 rayald 5.17 % 0.19 % 2017-01-01
211 garrisoco 5.16 % ** -0.27 % 2017-01-01
212 Total_US_Market 5.16 % ** -0.27 % 2017-01-01
213 Piniquim 5.15 % ** -0.27 % 2017-01-01
214 shaner19er 5.15 % ** 0.32 % 2017-01-01
215 Bighorn6 5.14 % 0.19 % 2017-01-01
216 Scarfinger68 5.14 % ** -0.28 % 2017-01-01
217 Boots22 5.14 % ** -0.28 % 2017-01-01
218 Widget 5.14 % ** -0.28 % 2017-01-01
219 shagerty 5.14 % ** -0.28 % 2017-01-01
220 rotti 5.14 % ** -0.28 % 2017-01-01
221 dcmorgan 5.14 % ** -0.28 % 2017-01-01
222 mikepop 5.13 % 0.53 % 2017-01-01
223 DakotaKid 5.13 % ** -0.28 % 2017-01-01
224 Andeano 5.12 % ** 0.27 % 2017-01-01
225 DeeBeeVA 5.11 % 3.29 % 2017-01-01
226 AzzySpazbourne 5.11 % ** -0.10 % 2017-01-01
227 bkc2a 5.09 % -0.77 % 2017-01-01
228 Rod 5.09 % ** -0.30 % 2017-01-01
229 spacepoints 5.09 % ** 0.63 % 2017-01-01
230 SWAVET 5.08 % -0.38 % 2017-01-01
231 mellowmoon 5.08 % 0.19 % 2017-01-01
232 urmomzbox 5.07 % ** -0.11 % 2017-01-01
233 Jqsomera 5.06 % ** 0.13 % 2017-01-01
234 atarrin 5.06 % ** 0.48 % 2017-01-01
235 Wildwoman 5.05 % 1.17 % 2017-01-01
236 Kotcha 5.05 % ** -0.12 % 2017-01-01
237 Christopher 5.04 % 0.36 % 2017-01-01
238 gaharris 5.01 % -0.08 % 2017-01-01
239 craigerv 5.01 % -0.05 % 2017-01-01
240 TDStrange 4.98 % 0.44 % 2017-01-01
241 ILoveTDs 4.98 % -0.04 % 2017-01-01
242 tankerclown 4.98 % 0.79 % 2017-01-01
243 BigBully 4.98 % -0.02 % 2017-01-01
244 playboy 4.98 % ** 0.07 % 2017-01-01
245 mdearman 4.98 % ** 0.35 % 2017-01-01
246 philcam 4.97 % 0.05 % 2017-01-01
247 MoneyManager 4.97 % ** -0.34 % 2017-01-01
248 william4x 4.96 % ** -0.10 % 2017-01-01
249 jpaulhus 4.96 % ** -0.35 % 2017-01-01
250 valions15 4.96 % ** -0.35 % 2017-01-01
Rank Username YTD Returns MTD Returns Start Date
251 rivs 4.96 % ** -0.35 % 2017-01-01
252 Pittdog 4.95 % 0.08 % 2017-01-01
253 HocusPocus 4.95 % ** -0.35 % 2017-01-01
254 kraplrak 4.94 % -0.47 % 2017-01-01
255 pcalderin 4.94 % ** -0.35 % 2017-01-01
256 SPN46er 4.94 % ** -0.35 % 2017-01-01
257 RWJorg 4.94 % ** -0.36 % 2017-01-01
258 vbbikerbums 4.94 % ** -0.35 % 2017-01-01
259 KneednDough 4.94 % ** -0.35 % 2017-01-01
260 Ddarko 4.94 % ** -0.36 % 2017-01-01
261 tton 4.93 % 0.52 % 2017-01-01
262 zegerst 4.93 % 0.19 % 2017-01-01
263 silver2828 4.93 % -0.36 % 2017-01-01
264 jamilaunc 4.93 % -0.36 % 2017-01-01
265 OBGibby 4.93 % ** -0.36 % 2017-01-01
266 Class 4.93 % ** -0.36 % 2017-01-01
267 SSJodon 4.93 % ** -0.36 % 2017-01-01
268 martint4 4.93 % ** -0.01 % 2017-01-01
269 Rumpelstilzchen 4.93 % ** -0.36 % 2017-01-01
270 buckeyefan201 4.93 % ** 0.25 % 2017-01-01
271 mpie72 4.93 % ** -0.09 % 2017-01-01
272 retire2017 4.93 % ** -0.36 % 2017-01-01
273 SuzinCity 4.93 % ** -0.36 % 2017-01-01
274 weigerber55 4.93 % ** -0.36 % 2017-01-01
275 drgonzo58 4.93 % ** -0.36 % 2017-01-01
276 Sandbagger6 4.92 % -0.36 % 2017-01-01
277 dunedad 4.92 % -0.36 % 2017-01-01
278 OhioOkie 4.92 % -0.35 % 2017-01-01
279 Benny7563 4.92 % -0.56 % 2017-01-01
280 Bfejeran 4.92 % -0.36 % 2017-01-01
281 evob 4.92 % ** -0.36 % 2017-01-01
282 Viva_La_Migra 4.92 % ** -0.36 % 2017-01-01
283 poolman 4.92 % ** -0.36 % 2017-01-01
284 SkyPilot 4.92 % ** -0.36 % 2017-01-01
285 bettertrader 4.92 % ** -0.36 % 2017-01-01
286 bubba71842 4.92 % ** -0.36 % 2017-01-01
287 divemonkey 4.92 % ** -0.36 % 2017-01-01
288 future 4.92 % ** -0.36 % 2017-01-01
289 Raxser 4.92 % ** -0.36 % 2017-01-01
290 Lucas123 4.92 % ** -0.36 % 2017-01-01
291 packerbart 4.91 % -0.37 % 2017-01-01
292 25or6to4 4.91 % ** -0.36 % 2017-01-01
293 jaks51 4.91 % ** 0.32 % 2017-01-01
294 RAMORIPKIN 4.91 % ** -0.37 % 2017-01-01
295 inyadreems 4.90 % -0.37 % 2017-01-01
296 FedSince2009 4.90 % ** 0.59 % 2017-01-01
297 kbennet1 4.90 % ** -0.37 % 2017-01-01
298 8_percent 4.90 % ** -0.37 % 2017-01-01
299 elufints 4.90 % ** -0.37 % 2017-01-01
300 Stony 4.90 % ** -0.37 % 2017-01-01
Rank Username YTD Returns MTD Returns Start Date
301 surftec 4.90 % ** -0.37 % 2017-01-01
302 tgun 4.90 % ** -0.37 % 2017-01-01
303 TSP-roulette 4.89 % -0.37 % 2017-01-01
304 scubasteve1 4.89 % ** -0.37 % 2017-01-01
305 tlap612 4.89 % ** -0.37 % 2017-01-01
306 JG2017 4.89 % ** -0.37 % 2017-01-01
307 Mustangmoose302 4.88 % -0.02 % 2017-01-01
308 goforit 4.88 % ** -0.37 % 2017-01-01
309 rossbrian00 4.88 % ** -0.38 % 2017-01-01
310 mrtruckaudi 4.87 % 0.29 % 2017-01-01
311 markisrt4 4.87 % 0.73 % 2017-01-01
312 MYDOGZCUTE 4.87 % ** -0.38 % 2017-01-01
313 redman2222 4.86 % ** 1.04 % 2017-01-01
314 Morpheus 4.86 % ** 0.60 % 2017-01-01
315 sjcook23 4.85 % -0.45 % 2017-01-01
316 redcard 4.85 % ** 0.29 % 2017-01-01
317 tmntrc56 4.85 % ** -0.39 % 2017-01-01
318 JVC1979 4.84 % 0.17 % 2017-01-01
319 eecscoder 4.84 % ** -0.20 % 2017-01-01
320 scrsvs 4.83 % 1.09 % 2017-01-01
321 FAB1 4.83 % 1.43 % 2017-01-01
322 cwbys223 4.83 % ** 0.23 % 2017-01-01
323 GenStar 4.82 % -2.14 % 2017-01-01
324 flyoa1 4.82 % 0.17 % 2017-01-01
325 Wizard_of_Oz 4.82 % ** -0.40 % 2017-01-01
326 Jayru 4.82 % ** 0.31 % 2017-01-01
327 sage 4.82 % ** -0.03 % 2017-01-01
328 polarbear 4.81 % 1.70 % 2017-01-01
329 badgerland 4.80 % ** 0.01 % 2017-01-01
330 puppylove 4.79 % ** -0.41 % 2017-01-01
331 Boghie 4.78 % ** 0.38 % 2017-01-01
332 Calicat69 4.78 % ** 0.54 % 2017-01-01
333 LilLair 4.77 % ** 0.90 % 2017-01-01
334 triquasar 4.76 % 3.29 % 2017-01-01
335 Mercy 4.76 % ** 0.66 % 2017-01-01
336 BigJohn 4.75 % -0.78 % 2017-01-01
337 jerzystang 4.75 % ** 0.49 % 2017-01-01
338 saxman 4.75 % ** -0.16 % 2017-01-01
339 retire15 4.74 % -0.77 % 2017-01-01
340 Inertia 4.74 % ** 1.02 % 2017-01-01
341 joharo 4.73 % ** -0.44 % 2017-01-01
342 gsrider 4.72 % 0.10 % 2017-01-01
343 Gain10 4.72 % ** -0.44 % 2017-01-01
344 ldm1958 4.72 % ** 0.27 % 2017-01-01
345 sparty83 4.71 % -0.44 % 2017-01-01
346 1Mech 4.71 % -0.44 % 2017-01-01
347 L2040 4.71 % 0.69 % 2017-01-01
348 Niner49er52 4.71 % ** -0.44 % 2017-01-01
349 TSPBrett 4.71 % ** -0.44 % 2017-01-01
350 soupygirl 4.71 % ** 0.69 % 2017-01-01
Rank Username YTD Returns MTD Returns Start Date
351 mosicki 4.71 % ** -0.14 % 2017-01-01
352 Salmon365 4.71 % ** 0.69 % 2017-01-01
353 soam24 4.71 % ** 0.69 % 2017-01-01
354 Castronaut 4.71 % ** 0.69 % 2017-01-01
355 Forcefed 4.71 % ** 0.69 % 2017-01-01
356 GOVOLS 4.71 % ** 0.69 % 2017-01-01
357 soupydog 4.71 % ** 0.69 % 2017-01-01
358 Tvenos 4.71 % ** 0.69 % 2017-01-01
359 rwwjr65 4.69 % ** -0.45 % 2017-01-01
360 kibey84 4.69 % ** -0.45 % 2017-01-01
361 DoughBoy 4.69 % ** -0.45 % 2017-01-01
362 trudger 4.68 % -0.32 % 2017-01-01
363 kujayhawk69 4.68 % ** 0.91 % 2017-01-01
364 itsRaining 4.67 % ** -0.46 % 2017-01-01
365 Riverman62 4.67 % ** 0.68 % 2017-01-01
366 lmbebo 4.65 % ** 0.22 % 2017-01-01
367 slakker97 4.65 % ** -0.12 % 2017-01-01
368 Monzie * 4.64 % 3.29 % 2017-01-31
369 rjeeeeezy 4.64 % ** -0.16 % 2017-01-01
370 rangerray 4.63 % -1.10 % 2017-01-01
371 Markster70 4.63 % -0.13 % 2017-01-01
372 Timberwoof 4.63 % -0.77 % 2017-01-01
373 Supernova2033 4.62 % 0.02 % 2017-01-01
374 Big_Sarge 4.61 % -0.44 % 2017-01-01
375 TheGizz 4.61 % ** 0.51 % 2017-01-01
376 texcc 4.60 % -0.77 % 2017-01-01
377 k9lowe 4.58 % ** 0.67 % 2017-01-01
378 Clemso 4.57 % ** -0.03 % 2017-01-01
379 raiderddj 4.56 % 3.05 % 2017-01-01
380 gsamx 4.56 % ** -0.04 % 2017-01-01
381 resurgemus 4.55 % 0.80 % 2017-01-01
382 miyagi 4.55 % -0.35 % 2017-01-01
383 DigDugII 4.55 % ** -0.05 % 2017-01-01
384 ravensfan 4.53 % 1.12 % 2017-01-01
385 Trapperpaul 4.53 % 0.74 % 2017-01-01
386 Weather_n_Leather 4.53 % ** 0.42 % 2017-01-01
387 CrgButcher 4.52 % 0.23 % 2017-01-01
388 ksklmiller 4.52 % ** -0.04 % 2017-01-01
389 Awsum_Al 4.51 % ** -0.52 % 2017-01-01
390 joehacker 4.50 % -0.33 % 2017-01-01
391 Tubman83 4.49 % -0.52 % 2017-01-01
392 Unmanned 4.49 % -0.53 % 2017-01-01
393 stacks 4.49 % ** -0.53 % 2017-01-01
394 joewashdc 4.49 % ** 0.65 % 2017-01-01
395 Mucho_Dinero 4.47 % 0.96 % 2017-01-01
396 EricDeLee 4.47 % -0.53 % 2017-01-01
397 Kafkaesquee 4.47 % ** -0.53 % 2017-01-01
398 mcash 4.46 % 0.31 % 2017-01-01
399 40calSue 4.45 % -0.20 % 2017-01-01
400 jpcavin 4.43 % 0.04 % 2017-01-01
Rank Username YTD Returns MTD Returns Start Date
401 Ozhusker * 4.42 % 0.55 % 2017-01-06
402 LMBF1_Day 4.42 % 0.05 % 2017-01-01
403 LMBF1_SIM 4.42 % 0.05 % 2017-01-01
404 lsutiger1985 4.42 % ** -0.35 % 2017-01-01
405 dirtboy27 4.41 % 0.49 % 2017-01-01
406 Burt 4.40 % ** -0.56 % 2017-01-01
407 vexter 4.39 % -0.36 % 2017-01-01
408 Bullseye 4.39 % ** -0.57 % 2017-01-01
409 savagemojo 4.39 % ** -0.57 % 2017-01-01
410 SCHAGAN 4.38 % 1.19 % 2017-01-01
411 Barney 4.38 % ** -0.57 % 2017-01-01
412 Skooby 4.37 % -0.57 % 2017-01-01
413 FishSqueezer 4.37 % 0.19 % 2017-01-01
414 pwclantdiv 4.36 % ** 0.63 % 2017-01-01
415 lilbob 4.36 % ** 0.82 % 2017-01-01
416 JimmyJoe 4.35 % ** -0.48 % 2017-01-01
417 mallardman89 4.33 % ** 0.05 % 2017-01-01
418 tkd1982 4.32 % ** 0.17 % 2017-01-01
419 NotReally! 4.30 % -0.63 % 2017-01-01
420 jnchandrew 4.29 % 0.69 % 2017-01-01
421 markopolno12 4.27 % ** -0.61 % 2017-01-01
422 CapeChem 4.25 % 0.64 % 2017-01-01
423 cbp03 4.25 % ** -0.09 % 2017-01-01
424 ferretgrl 4.25 % ** -0.26 % 2017-01-01
425 mikeginva 4.25 % ** -0.26 % 2017-01-01
426 FedUpFed 4.24 % 0.19 % 2017-01-01
427 69mustang 4.21 % 0.77 % 2017-01-01
428 cvlsvt 4.21 % ** 0.50 % 2017-01-01
429 bjohnson12 4.20 % 0.60 % 2017-01-01
430 BGBassLady64 4.20 % 0.40 % 2017-01-01
431 Jane 4.20 % -0.44 % 2017-01-01
432 felixthecat 4.20 % 0.19 % 2017-01-01
433 mrmaxd 4.20 % ** 1.77 % 2017-01-01
434 Jaybird79 4.19 % ** -0.26 % 2017-01-01
435 Robin_hood 4.18 % 2.47 % 2017-01-01
436 Bball 4.18 % ** 1.11 % 2017-01-01
437 ijmurray 4.17 % ** -0.44 % 2017-01-01
438 GonzoJK 4.16 % 0.57 % 2017-01-01
439 kathy73 4.15 % 0.52 % 2017-01-01
440 Richard_Todd 4.13 % 1.67 % 2017-01-01
441 roonie 4.13 % ** -0.36 % 2017-01-01
442 Boxholder 4.12 % 0.37 % 2017-01-01
443 Carwin 4.12 % 0.17 % 2017-01-01
444 Skorp64 4.12 % -0.02 % 2017-01-01
445 weather 4.12 % ** 0.62 % 2017-01-01
446 L2030 4.12 % 0.62 % 2017-01-01
447 LeCouchonDingue 4.12 % ** 0.62 % 2017-01-01
448 DrScooter 4.12 % ** 0.62 % 2017-01-01
449 marka1620 4.12 % ** 0.62 % 2017-01-01
450 pathalford 4.12 % ** 0.62 % 2017-01-01
Rank Username YTD Returns MTD Returns Start Date
451 cfwcfw 4.10 % ** -0.27 % 2017-01-01
452 u.s.dan 4.09 % 0.62 % 2017-01-01
453 cmccall661 4.09 % -0.77 % 2017-01-01
454 indgilbert 4.07 % 0.14 % 2017-01-01
455 JOSE123 4.06 % ** 1.71 % 2017-01-01
456 scaltagi 4.06 % ** -0.15 % 2017-01-01
457 tjdorrie 4.04 % ** 0.46 % 2017-01-01
458 ksteiner560 4.03 % -0.66 % 2017-01-01
459 Kaufmanrider 4.02 % ** 0.83 % 2017-01-01
460 codezero 4.02 % ** 0.18 % 2017-01-01
461 jplecain 4.01 % 0.10 % 2017-01-01
462 catak 4.01 % ** 0.30 % 2017-01-01
463 yanni123 3.99 % -0.45 % 2017-01-01
464 pinion 3.99 % ** 0.38 % 2017-01-01
465 Knot_Guilty 3.98 % 0.89 % 2017-01-01
466 chemmie 3.98 % -0.65 % 2017-01-01
467 martycox88 3.98 % ** -0.77 % 2017-01-01
468 limebalz 3.96 % 0.46 % 2017-01-01
469 rbizz 3.96 % -1.84 % 2017-01-01
470 PIC153BD 3.96 % ** -0.62 % 2017-01-01
471 scsiguru 3.96 % ** 0.57 % 2017-01-01
472 rookiecsi 3.94 % -0.77 % 2017-01-01
473 Phil46 3.94 % ** 0.54 % 2017-01-01
474 denbo 3.92 % 0.19 % 2017-01-01
475 CapnEddie 3.91 % ** -0.77 % 2017-01-01
476 Rico69 3.89 % -0.36 % 2017-01-01
477 thewingreaper 3.86 % 1.29 % 2017-01-01
478 20%_each 3.86 % 0.52 % 2017-01-01
479 CDooge 3.86 % ** 0.52 % 2017-01-01
480 Rube 3.86 % ** 0.52 % 2017-01-01
481 msm24 3.86 % ** 0.52 % 2017-01-01
482 skid-kid 3.85 % -0.77 % 2017-01-01
483 HarleyLar 3.85 % -0.77 % 2017-01-01
484 Babygirl07 3.85 % -0.77 % 2017-01-01
485 Shamus13 3.85 % -0.77 % 2017-01-01
486 MaStA 3.85 % -0.77 % 2017-01-01
487 TraderJane 3.85 % -0.77 % 2017-01-01
488 krash9561 3.85 % -0.77 % 2017-01-01
489 adestonobis 3.85 % -0.77 % 2017-01-01
490 NavyEng 3.85 % -0.77 % 2017-01-01
491 LMBF1-CI>S 3.85 % -0.77 % 2017-01-01
492 marco59 3.85 % -0.77 % 2017-01-01
493 48cj2a 3.85 % -0.77 % 2017-01-01
494 Brinky 3.85 % -0.77 % 2017-01-01
495 rothnroll 3.85 % -0.77 % 2017-01-01
496 steve10608 3.85 % -0.77 % 2017-01-01
497 ckeiththeman 3.85 % -0.77 % 2017-01-01
498 ArchAngel 3.85 % -0.77 % 2017-01-01
499 madchili 3.85 % ** -0.77 % 2017-01-01
500 radarvector 3.85 % ** -0.77 % 2017-01-01
Rank Username YTD Returns MTD Returns Start Date
501 a1sauce 3.85 % ** -0.77 % 2017-01-01
502 moneymikem 3.85 % ** -0.77 % 2017-01-01
503 BrkBred247 3.85 % ** -0.77 % 2017-01-01
504 Peteylaw06 3.85 % ** -0.77 % 2017-01-01
505 ccarrolls 3.85 % ** -0.77 % 2017-01-01
506 kcfz0t 3.85 % ** -0.77 % 2017-01-01
507 SPOT_LT 3.85 % ** -0.77 % 2017-01-01
508 ttn 3.85 % ** -0.77 % 2017-01-01
509 S-fund 3.85 % -0.77 % 2017-01-01
510 caseyd8s 3.85 % ** -0.77 % 2017-01-01
511 jmartello 3.85 % ** -0.77 % 2017-01-01
512 n.shift 3.85 % ** -0.77 % 2017-01-01
513 b52vqn 3.85 % ** -0.77 % 2017-01-01
514 mikepriest 3.85 % ** -0.77 % 2017-01-01
515 Cactus 3.85 % ** -0.77 % 2017-01-01
516 Cashflow911 3.85 % ** -0.77 % 2017-01-01
517 FatMan 3.85 % ** -0.77 % 2017-01-01
518 Reggie0622 3.85 % ** -0.77 % 2017-01-01
519 jwblanfo 3.85 % ** -0.77 % 2017-01-01
520 RX-7 3.85 % ** -0.77 % 2017-01-01
521 mxtwo50r 3.85 % ** -0.77 % 2017-01-01
522 dseery3 3.85 % ** -0.77 % 2017-01-01
523 jerodt 3.85 % ** -0.77 % 2017-01-01
524 soupyBeard 3.85 % ** -0.77 % 2017-01-01
525 spantzer 3.85 % ** -0.77 % 2017-01-01
526 jbvollmer 3.85 % ** -0.77 % 2017-01-01
527 bylow-cellhi 3.85 % ** -0.77 % 2017-01-01
528 kodaq2001 3.85 % ** -0.77 % 2017-01-01
529 thinkman 3.85 % ** -0.77 % 2017-01-01
530 canmannc 3.85 % ** -0.77 % 2017-01-01
531 geargirl 3.85 % ** -0.77 % 2017-01-01
532 captjamied 3.85 % ** -0.77 % 2017-01-01
533 Bettinainc 3.85 % ** -0.77 % 2017-01-01
534 Woodys_World 3.85 % ** -0.77 % 2017-01-01
535 jetjammr 3.85 % ** -0.77 % 2017-01-01
536 68chevy 3.85 % ** -0.77 % 2017-01-01
537 G-Money 3.85 % ** -0.77 % 2017-01-01
538 sythbpr 3.85 % ** -0.77 % 2017-01-01
539 nightman 3.85 % ** -0.77 % 2017-01-01
540 Aiagib 3.85 % ** -0.77 % 2017-01-01
541 MahiChaser 3.85 % ** -0.77 % 2017-01-01
542 eshore07 3.85 % ** -0.77 % 2017-01-01
543 ILTDtechnical 3.85 % ** -0.77 % 2017-01-01
544 Sensei 3.85 % ** -0.77 % 2017-01-01
545 scaredstiff 3.85 % ** -0.77 % 2017-01-01
546 kleios 3.85 % ** -0.77 % 2017-01-01
547 walterramjet 3.85 % ** -0.77 % 2017-01-01
548 RabbiTuckman 3.85 % ** -0.77 % 2017-01-01
549 Dexter 3.85 % ** -0.77 % 2017-01-01
550 gronk007 3.85 % ** -0.77 % 2017-01-01
Rank Username YTD Returns MTD Returns Start Date
551 BReine13 3.85 % ** -0.77 % 2017-01-01
552 DylanFan 3.85 % ** -0.77 % 2017-01-01
553 mollshark 3.85 % ** -0.77 % 2017-01-01
554 recki13 3.85 % ** -0.77 % 2017-01-01
555 kawzman 3.85 % ** -0.77 % 2017-01-01
556 NiteFlyer 3.85 % ** -0.77 % 2017-01-01
557 sniper 3.85 % ** -0.77 % 2017-01-01
558 Uptrend 3.85 % ** -0.77 % 2017-01-01
559 Legend 3.85 % ** -0.77 % 2017-01-01
560 Hank2 3.85 % ** -0.77 % 2017-01-01
561 barryc 3.85 % ** -0.77 % 2017-01-01
562 HookemDanno 3.85 % ** -0.77 % 2017-01-01
563 vdubya 3.85 % ** -0.77 % 2017-01-01
564 Dave98 3.85 % ** -0.77 % 2017-01-01
565 applejack 3.85 % ** -0.77 % 2017-01-01
566 D_Brown 3.85 % ** -0.77 % 2017-01-01
567 Piesanders 3.85 % ** -0.77 % 2017-01-01
568 uphan 3.85 % ** -0.77 % 2017-01-01
569 Cmarq2k2 3.85 % ** -0.77 % 2017-01-01
570 ReverendHerc 3.85 % ** -0.77 % 2017-01-01
571 antauz 3.85 % ** -0.77 % 2017-01-01
572 horseman 3.85 % ** -0.77 % 2017-01-01
573 Racerx919 3.85 % ** -0.77 % 2017-01-01
574 SPUR 3.85 % ** -0.77 % 2017-01-01
575 uscs344 3.85 % ** -0.77 % 2017-01-01
576 1953greg 3.85 % ** -0.77 % 2017-01-01
577 5hundy 3.85 % ** -0.77 % 2017-01-01
578 accountant02130 3.85 % ** -0.77 % 2017-01-01
579 albwrong 3.85 % ** -0.77 % 2017-01-01
580 andercee 3.85 % ** -0.77 % 2017-01-01
581 Asylum 3.85 % ** -0.77 % 2017-01-01
582 barb41048 3.85 % ** -0.77 % 2017-01-01
583 BichonFreeze 3.85 % ** -0.77 % 2017-01-01
584 bigcat61 3.85 % ** -0.77 % 2017-01-01
585 bluecrab 3.85 % ** -0.77 % 2017-01-01
586 bobmarley753 3.85 % ** -0.77 % 2017-01-01
587 BP171 3.85 % ** -0.77 % 2017-01-01
588 Bravos_Time! 3.85 % ** -0.77 % 2017-01-01
589 bucket 3.85 % ** -0.77 % 2017-01-01
590 ccharsh22 3.85 % ** -0.77 % 2017-01-01
591 Dalz 3.85 % ** -0.77 % 2017-01-01
592 Dartman 3.85 % ** -0.77 % 2017-01-01
593 delldell 3.85 % ** -0.77 % 2017-01-01
594 dojdave 3.85 % ** -0.77 % 2017-01-01
595 DonKeyhote 3.85 % ** -0.77 % 2017-01-01
596 Dsots 3.85 % ** -0.77 % 2017-01-01
597 elinca 3.85 % ** -0.77 % 2017-01-01
598 engr_villa 3.85 % ** -0.77 % 2017-01-01
599 ericwinn 3.85 % ** -0.77 % 2017-01-01
600 FISHHEADS 3.85 % ** -0.77 % 2017-01-01
Rank Username YTD Returns MTD Returns Start Date
601 flipman 3.85 % ** -0.77 % 2017-01-01
602 gagobutos 3.85 % ** -0.77 % 2017-01-01
603 gdraft 3.85 % ** -0.77 % 2017-01-01
604 hardyandtiny 3.85 % ** -0.77 % 2017-01-01
605 Howanic 3.85 % ** -0.77 % 2017-01-01
606 Jagman26 3.85 % ** -0.77 % 2017-01-01
607 Jaygoots 3.85 % ** -0.77 % 2017-01-01
608 Jimmys_Girl 3.85 % ** -0.77 % 2017-01-01
609 Kylee 3.85 % ** -0.77 % 2017-01-01
610 ldrltjg 3.85 % ** -0.77 % 2017-01-01
611 lestampoc 3.85 % ** -0.77 % 2017-01-01
612 liquidh2o 3.85 % ** -0.77 % 2017-01-01
613 Magic 3.85 % ** -0.77 % 2017-01-01
614 marcusg 3.85 % ** -0.77 % 2017-01-01
615 martypantsss 3.85 % ** -0.77 % 2017-01-01
616 mikrodojr 3.85 % ** -0.77 % 2017-01-01
617 minhan_1408 3.85 % ** -0.77 % 2017-01-01
618 mrfishing 3.85 % ** -0.77 % 2017-01-01
619 Mr_Mojo_Rising 3.85 % ** -0.77 % 2017-01-01
620 mustbev 3.85 % ** -0.77 % 2017-01-01
621 NationalGuard 3.85 % ** -0.77 % 2017-01-01
622 navgod34 3.85 % ** -0.77 % 2017-01-01
623 Newbie 3.85 % ** -0.77 % 2017-01-01
624 nnewman 3.85 % ** -0.77 % 2017-01-01
625 pops 3.85 % ** -0.77 % 2017-01-01
626 pwagner3md 3.85 % ** -0.77 % 2017-01-01
627 rabbithimself 3.85 % ** -0.77 % 2017-01-01
628 Revanshill 3.85 % ** -0.77 % 2017-01-01
629 Rifleman 3.85 % ** -0.77 % 2017-01-01
630 rwmiller50 3.85 % ** -0.77 % 2017-01-01
631 sball.ca 3.85 % ** -0.77 % 2017-01-01
632 SeaOtter 3.85 % ** -0.77 % 2017-01-01
633 shelby642 3.85 % ** -0.77 % 2017-01-01
634 shoeboxgorilla 3.85 % ** -0.77 % 2017-01-01
635 skbn 3.85 % ** -0.77 % 2017-01-01
636 Snake1b4 3.85 % ** -0.77 % 2017-01-01
637 SPANK550 3.85 % ** -0.77 % 2017-01-01
638 SR101 3.85 % ** -0.77 % 2017-01-01
639 TaillightMafia 3.85 % ** -0.77 % 2017-01-01
640 taronsr 3.85 % ** -0.77 % 2017-01-01
641 tekpc2k2 3.85 % ** -0.77 % 2017-01-01
642 theScientist 3.85 % ** -0.77 % 2017-01-01
643 tlmathe 3.85 % ** -0.77 % 2017-01-01
644 trwill7172 3.85 % ** -0.77 % 2017-01-01
645 victoria 3.85 % ** -0.77 % 2017-01-01
646 vintage53 3.85 % ** -0.77 % 2017-01-01
647 wolfpup77 3.85 % ** -0.77 % 2017-01-01
648 Wulfie 3.85 % ** -0.77 % 2017-01-01
649 wsureshoot 3.85 % ** -0.77 % 2017-01-01
650 drewcifer 3.85 % ** -0.77 % 2017-01-01
Rank Username YTD Returns MTD Returns Start Date
651 snwbrdr397 3.85 % ** -0.77 % 2017-01-01
652 Handballer 3.85 % ** -0.77 % 2017-01-01
653 Steelhead 3.85 % ** -0.77 % 2017-01-01
654 wddolson 3.85 % ** -0.77 % 2017-01-01
655 DetroitLifer 3.85 % ** -0.77 % 2017-01-01
656 Crackon 3.85 % ** -0.77 % 2017-01-01
657 LMBF_Method 3.85 % ** -0.77 % 2017-01-01
658 canisdog 3.84 % ** 0.52 % 2017-01-01
659 Cash_Money 3.82 % -0.69 % 2017-01-01
660 pdug 3.81 % -1.11 % 2017-01-01
661 rallythis 3.81 % -0.81 % 2017-01-01
662 KNUCKLEDRAGGER 3.78 % 1.71 % 2017-01-01
663 pjsstuff71 3.76 % 0.04 % 2017-01-01
664 sean101 3.74 % 0.35 % 2017-01-01
665 NSLADL2 3.74 % ** -0.38 % 2017-01-01
666 hosscube 3.74 % ** -0.24 % 2017-01-01
667 justbidinmytime 3.72 % -0.31 % 2017-01-01
668 Striken7 3.72 % ** -0.22 % 2017-01-01
669 sanfran814 * 3.71 % 1.78 % 2017-01-05
670 ShadowHawk 3.71 % -0.05 % 2017-01-01
671 Tsunami 3.70 % 0.68 % 2017-01-01
672 Damndogs 3.70 % -0.92 % 2017-01-01
673 dialing4dollars 3.69 % 0.88 % 2017-01-01
674 Tamjay74 3.69 % ** -0.57 % 2017-01-01
675 Captcaveman 3.68 % -0.25 % 2017-01-01
676 FireWeatherMet 3.68 % 1.57 % 2017-01-01
677 coop65 3.67 % -0.94 % 2017-01-01
678 argyle64 3.66 % -0.02 % 2017-01-01
679 Beagle * 3.66 % 0.05 % 2017-01-24
680 CadMeUm 3.65 % 1.84 % 2017-01-01
681 lkatme 3.64 % ** 0.28 % 2017-01-01
682 Carpatc 3.63 % ** -0.35 % 2017-01-01
683 SKIPPER 3.61 % -1.62 % 2017-01-01
684 babydux 3.61 % -0.77 % 2017-01-01
685 silversurfer 3.60 % ** -0.36 % 2017-01-01
686 jasonlwright 3.60 % ** -0.20 % 2017-01-01
687 ryencsik 3.60 % ** -0.22 % 2017-01-01
688 J-Trader 3.59 % 1.12 % 2017-01-01
689 cholondo 3.59 % ** 0.18 % 2017-01-01
690 StockSurfer 3.58 % -0.16 % 2017-01-01
691 asuasylum 3.57 % -0.94 % 2017-01-01
692 Sad_Al 3.57 % -0.06 % 2017-01-01
693 LMBF1_C>S 3.57 % -0.77 % 2017-01-01
694 riverdestiny 3.57 % ** -0.47 % 2017-01-01
695 Bender 3.56 % 0.11 % 2017-01-01
696 Bullet 3.55 % -1.06 % 2017-01-01
697 oOSupremeOo 3.54 % -0.77 % 2017-01-01
698 sigj 3.54 % ** -0.77 % 2017-01-01
699 parkbrau 3.54 % ** 0.65 % 2017-01-01
700 phlames 3.53 % -0.77 % 2017-01-01
Rank Username YTD Returns MTD Returns Start Date
701 Jason.Z 3.53 % 1.33 % 2017-01-01
702 felinecrl 3.53 % -0.76 % 2017-01-01
703 paperbitch 3.53 % ** -0.61 % 2017-01-01
704 IWTC 3.52 % ** 0.00 % 2017-01-01
705 lsrodgers 3.51 % ** 0.40 % 2017-01-01
706 Roddhsi 3.49 % -1.29 % 2017-01-01
707 kemphrunner 3.49 % -0.77 % 2017-01-01
708 DreamboatAnnie 3.47 % 0.41 % 2017-01-01
709 hotwings 3.46 % 0.22 % 2017-01-01
710 PublicServant * 3.45 % 0.44 % 2017-02-01
711 londi1tagaholy 3.45 % ** 0.11 % 2017-01-01
712 marshad_786 3.44 % -0.53 % 2017-01-01
713 Skorcher 3.44 % 0.21 % 2017-01-01
714 Scrappy 3.44 % 0.47 % 2017-01-01
715 phxmrc 3.43 % -0.27 % 2017-01-01
716 eddie3375 3.43 % -1.02 % 2017-01-01
717 Rogue 3.42 % 0.17 % 2017-01-01
718 KRSSDSU 3.42 % -0.48 % 2017-01-01
719 Maine-i-ac 3.41 % 0.19 % 2017-01-01
720 funkyhunky 3.41 % 0.36 % 2017-01-01
721 Emcd14 3.37 % ** -0.16 % 2017-01-01
722 Kentucky 3.36 % 0.55 % 2017-01-01
723 fossilbird 3.34 % ** 0.11 % 2017-01-01
724 lthor 3.33 % 0.19 % 2017-01-01
725 Shakenbake * 3.32 % -0.30 % 2017-01-11
726 Cathy57 3.27 % ** 0.19 % 2017-01-01
727 spgenius 3.26 % -0.69 % 2017-01-01
728 anthony 3.25 % 1.70 % 2017-01-01
729 Renoir 3.22 % ** 0.26 % 2017-01-01
730 RushSlowly 3.21 % 0.41 % 2017-01-01
731 1965Vintage * 3.21 % 0.57 % 2017-01-19
732 Jetpowered78 3.19 % -1.24 % 2017-01-01
733 Mustang2008 * 3.19 % 0.44 % 2017-01-09
734 Beacher1 3.19 % -0.77 % 2017-01-01
735 arodiaz 3.19 % ** 0.42 % 2017-01-01
736 PTSarge 3.19 % ** 0.05 % 2017-01-01
737 Dorado 3.17 % -1.44 % 2017-01-01
738 modom07 * 3.16 % 1.24 % 2017-02-02
739 ztlmike 3.16 % 0.23 % 2017-01-01
740 dave 3.16 % -1.63 % 2017-01-01
741 sierrabravo11 * 3.15 % 1.11 % 2017-01-27
742 Pmnick114 3.15 % ** 0.31 % 2017-01-01
743 endoskell 3.14 % -0.04 % 2017-01-01
744 TURNIPSEED 3.14 % ** 0.07 % 2017-01-01
745 Mlbplayer86 * 3.14 % ** 0.28 % 2017-01-17
746 freemanick 3.13 % -1.46 % 2017-01-01
747 Kevindraws53 3.13 % ** -0.13 % 2017-01-01
748 sgtbriangreen 3.11 % 1.63 % 2017-01-01
749 poi9 3.11 % -0.56 % 2017-01-01
750 coinmanjack 3.09 % 0.47 % 2017-01-01
Rank Username YTD Returns MTD Returns Start Date
751 Hamhocs 3.09 % -1.62 % 2017-01-01
752 HollywoodNY 3.09 % ** 0.48 % 2017-01-01
753 beachfront * 3.08 % -0.36 % 2017-01-30
754 tazzymt 3.07 % -0.02 % 2017-01-01
755 KyFan1 3.04 % -1.55 % 2017-01-01
756 JaBlack 3.03 % 0.02 % 2017-01-01
757 txfan 3.01 % -0.36 % 2017-01-01
758 ward5820 3.00 % -0.95 % 2017-01-01
759 Rummy1958 2.97 % 0.00 % 2017-01-01
760 tucotsp 2.96 % -0.69 % 2017-01-01
761 batman 2.96 % ** -0.07 % 2017-01-01
762 ravenstreasures 2.96 % ** -0.14 % 2017-01-01
763 fran1775 2.95 % 0.29 % 2017-01-01
764 MoneyTalks 2.94 % 0.45 % 2017-01-01
765 Attila 2.93 % 0.68 % 2017-01-01
766 franky 2.93 % -0.77 % 2017-01-01
767 razorbckx 2.93 % ** 0.48 % 2017-01-01
768 Medic72 2.91 % ** -0.11 % 2017-01-01
769 tucahay 2.90 % -0.77 % 2017-01-01
770 L2020 2.90 % 0.47 % 2017-01-01
771 KevinD 2.90 % ** 0.47 % 2017-01-01
772 wornout 2.90 % ** 0.47 % 2017-01-01
773 derosafj 2.90 % ** 0.47 % 2017-01-01
774 dpardue 2.90 % ** 0.47 % 2017-01-01
775 mbergevinjr 2.89 % 0.19 % 2017-01-01
776 Snakebite 2.88 % 0.71 % 2017-01-01
777 RobinHood 2.88 % 0.32 % 2017-01-01
778 Richman52 * 2.88 % 0.83 % 2017-01-27
779 sdhoag13 2.86 % 0.07 % 2017-01-01
780 MRJ 2.85 % -0.77 % 2017-01-01
781 p3a 2.84 % 0.40 % 2017-01-01
782 lpac 2.84 % 1.75 % 2017-01-01
783 Luckycat 2.84 % ** -0.10 % 2017-01-01
784 bikeboyjoe 2.82 % ** 0.40 % 2017-01-01
785 Lynx 2.81 % 0.04 % 2017-01-01
786 nightsters 2.79 % -1.31 % 2017-01-01
787 Sonic 2.78 % -0.61 % 2017-01-01
788 skeeter 2.77 % -1.38 % 2017-01-01
789 homieg24 2.76 % 0.36 % 2017-01-01
790 Sign_Stealer 2.76 % -2.24 % 2017-01-01
791 Towanda 2.76 % ** -0.31 % 2017-01-01
792 TradingJoe 2.75 % 0.37 % 2017-01-01
793 Britts4life 2.75 % -1.31 % 2017-01-01
794 murph 2.75 % 1.37 % 2017-01-01
795 Rainmaker44 2.74 % 0.31 % 2017-01-01
796 prisonguard224 2.74 % ** 0.19 % 2017-01-01
797 BIGfRED 2.74 % ** 0.10 % 2017-01-01
798 2Plus 2.73 % -1.15 % 2017-01-01
799 jeffrey77jones 2.71 % 0.92 % 2017-01-01
800 MakeItRain 2.71 % -0.69 % 2017-01-01
Rank Username YTD Returns MTD Returns Start Date
801 goose 2.70 % -2.24 % 2017-01-01
802 ROCKMAXX 2.70 % 0.33 % 2017-01-01
803 Jrfich 2.67 % -0.89 % 2017-01-01
804 tataberto 2.67 % -0.14 % 2017-01-01
805 3days 2.65 % -2.73 % 2017-01-01
806 nate4sho 2.63 % -1.24 % 2017-01-01
807 frostybosty 2.62 % 0.19 % 2017-01-01
808 aeroconfigs 2.61 % -2.24 % 2017-01-01
809 mrduckmd1 2.61 % ** 0.16 % 2017-01-01
810 puddy 2.60 % -0.52 % 2017-01-01
811 DaBears17 2.60 % ** -0.77 % 2017-01-01
812 DC2scott * 2.58 % -0.61 % 2017-01-30
813 tspintel 2.57 % 0.92 % 2017-01-01
814 alexkoonce 2.56 % ** -0.13 % 2017-01-01
815 ChessGuy 2.55 % 0.66 % 2017-01-01
816 soon2retire 2.55 % ** 0.55 % 2017-01-01
817 boilerman 2.50 % -0.77 % 2017-01-01
818 DudeWayne 2.50 % ** 0.07 % 2017-01-01
819 crhuss 2.50 % ** -0.07 % 2017-01-01
820 ezcomeezgo 2.49 % -0.06 % 2017-01-01
821 rich1 2.45 % ** -0.38 % 2017-01-01
822 spapadopoulos 2.43 % -0.14 % 2017-01-01
823 Pickles 2.43 % 0.91 % 2017-01-01
824 Clue 2.43 % -0.29 % 2017-01-01
825 merlin 2.43 % ** -0.05 % 2017-01-01
826 StockTater 2.43 % ** -0.36 % 2017-01-01
827 BillD 2.43 % ** 0.13 % 2017-01-01
828 c130 2.42 % -0.14 % 2017-01-01
829 JAFI 2.42 % 0.38 % 2017-01-01
830 adamo 2.41 % 0.19 % 2017-01-01
831 insocova 2.41 % ** -0.36 % 2017-01-01
832 timingbill 2.41 % ** -0.36 % 2017-01-01
833 Rundp 2.41 % ** -0.05 % 2017-01-01
834 14ers 2.40 % ** -0.36 % 2017-01-01
835 ArkHills 2.39 % 0.19 % 2017-01-01
836 jbwalters 2.39 % -0.83 % 2017-01-01
837 Tangmonke 2.39 % 0.33 % 2017-01-01
838 MaxPowers 2.35 % 0.27 % 2017-01-01
839 meyersj 2.35 % ** 0.19 % 2017-01-01
840 gk10128 2.34 % -1.00 % 2017-01-01
841 gos3319 2.34 % ** -0.34 % 2017-01-01
842 mschewy 2.33 % -2.81 % 2017-01-01
843 bmthomas0222 2.33 % ** -0.03 % 2017-01-01
844 SteelSaving 2.32 % 0.16 % 2017-01-01
845 domino11 2.32 % ** -0.33 % 2017-01-01
846 flg22 2.30 % -1.02 % 2017-01-01
847 pamkk 2.30 % -0.09 % 2017-01-01
848 fick 2.29 % ** 0.35 % 2017-01-01
849 yeot 2.29 % ** 0.38 % 2017-01-01
850 TMUFR 2.28 % 0.41 % 2017-01-01
Rank Username YTD Returns MTD Returns Start Date
851 catsathome 2.27 % 0.05 % 2017-01-01
852 TKMike 2.27 % -0.05 % 2017-01-01
853 Klear 2.26 % 0.76 % 2017-01-01
854 GoNoles 2.26 % ** -0.32 % 2017-01-01
855 REDNECK 2.26 % ** -0.03 % 2017-01-01
856 pread 2.25 % -0.77 % 2017-01-01
857 evilanne 2.24 % 0.10 % 2017-01-01
858 Bmoredunks 2.23 % -0.80 % 2017-01-01
859 tdekens * 2.22 % -0.36 % 2017-02-06
860 thickage * 2.22 % ** 0.20 % 2017-01-25
861 crommie 2.21 % -2.77 % 2017-01-01
862 MrBowl 2.21 % -2.24 % 2017-01-01
863 loco_lobo 2.20 % -1.09 % 2017-01-01
864 jpatriarca 2.20 % ** 0.29 % 2017-01-01
865 klaron 2.19 % -2.24 % 2017-01-01
866 2Funds 2.19 % ** 0.15 % 2017-01-01
867 MacDaddy 2.16 % 2.19 % 2017-01-01
868 OldGoat * 2.16 % 1.49 % 2017-01-11
869 Risky1 2.16 % ** 0.60 % 2017-01-01
870 Risky11 2.16 % ** 0.60 % 2017-01-01
871 Cruser 2.15 % -0.44 % 2017-01-01
872 kras 2.14 % -0.36 % 2017-01-01
873 neptune 2.11 % -0.96 % 2017-01-01
874 EarlyRTr 2.10 % 0.00 % 2017-01-01
875 postalmatt 2.09 % 0.32 % 2017-01-01
876 ephsns2 2.07 % -0.12 % 2017-01-01
877 daze823 2.05 % 1.01 % 2017-01-01
878 amuraider 2.05 % 0.18 % 2017-01-01
879 1derman 2.05 % ** 0.05 % 2017-01-01
880 Gypsy55 2.04 % -0.61 % 2017-01-01
881 Mauser 2.04 % 0.04 % 2017-01-01
882 IFTrader 2.04 % 0.59 % 2017-01-01
883 EWB! 2.03 % 0.29 % 2017-01-01
884 olddog 2.02 % -0.36 % 2017-01-01
885 mickeyelk 2.00 % -1.02 % 2017-01-01
886 SICK2MYSTOMACH 1.99 % 0.33 % 2017-01-01
887 FordMan 1.99 % ** 0.20 % 2017-01-01
888 konakathy 1.99 % ** 0.01 % 2017-01-01
889 Badgers69 1.98 % 0.26 % 2017-01-01
890 mtstricker 1.98 % ** 0.00 % 2017-01-01
891 Totohydra 1.96 % -0.63 % 2017-01-01
892 cowboyaug4 1.95 % 1.03 % 2017-01-01
893 Jayeks 1.94 % -3.34 % 2017-01-01
894 joh1135 1.92 % ** 0.79 % 2017-01-01
895 BArREttLEEMAKINIT 1.91 % -0.77 % 2017-01-01
896 riptide17 1.89 % 0.21 % 2017-01-01
897 NASAedStevens 1.88 % ** 0.14 % 2017-01-01
898 czapor1967 1.86 % -0.77 % 2017-01-01
899 Volfan 1.83 % -0.57 % 2017-01-01
900 PAINTER533 1.81 % ** 0.16 % 2017-01-01
Rank Username YTD Returns MTD Returns Start Date
901 lsbeachwx 1.79 % 0.57 % 2017-01-01
902 tdorney1 1.78 % ** 0.26 % 2017-01-01
903 Copedad * 1.77 % -0.49 % 2017-01-30
904 LongShot 1.77 % -2.24 % 2017-01-01
905 farmerjack 1.76 % ** 0.34 % 2017-01-01
906 clester 1.75 % -1.43 % 2017-01-01
907 Holden_Caufield 1.75 % 0.61 % 2017-01-01
908 rchurchwell 1.75 % -0.77 % 2017-01-01
909 EarlyRetire 1.75 % ** 0.23 % 2017-01-01
910 chingerson 1.75 % ** 0.17 % 2017-01-01
911 bones605 1.74 % ** 0.33 % 2017-01-01
912 North 1.74 % ** 0.09 % 2017-01-01
913 goldenyears 1.72 % 0.32 % 2017-01-01
914 barnowlet 1.72 % ** -0.01 % 2017-01-01
915 L-Income 1.72 % 0.32 % 2017-01-01
916 ricokaro 1.72 % ** 0.32 % 2017-01-01
917 betterdeal 1.72 % ** 0.32 % 2017-01-01
918 Crewdog 1.72 % ** 0.32 % 2017-01-01
919 1FraGar 1.68 % 0.67 % 2017-01-01
920 bullsheet 1.68 % ** -0.14 % 2017-01-01
921 sagramore 1.68 % ** 0.01 % 2017-01-01
922 TSP4Soccer 1.66 % ** -0.15 % 2017-01-01
923 hotelyankee16 * 1.65 % -0.77 % 2017-01-31
924 kave 1.64 % 0.21 % 2017-01-01
925 Spaniard 1.64 % ** 0.05 % 2017-01-01
926 bohammer 1.63 % ** 0.66 % 2017-01-01
927 slayer72 1.62 % 0.44 % 2017-01-01
928 sbates 1.61 % ** 0.06 % 2017-01-01
929 Bdiddy 1.59 % 0.70 % 2017-01-01
930 les2l8 1.58 % -1.45 % 2017-01-01
931 MohammadXX 1.58 % 0.23 % 2017-01-01
932 dallashalos 1.57 % -0.87 % 2017-01-01
933 DaddyTin 1.57 % -0.77 % 2017-01-01
934 alevin 1.56 % 0.19 % 2017-01-01
935 IndianaJones 1.55 % -1.00 % 2017-01-01
936 rytrucker 1.55 % ** 0.05 % 2017-01-01
937 99percent 1.51 % ** 0.05 % 2017-01-01
938 arrow_point 1.50 % -0.77 % 2017-01-01
939 tink 1.50 % 0.05 % 2017-01-01
940 CallMeIshmael 1.50 % ** 0.25 % 2017-01-01
941 iceman1jag 1.46 % ** -0.08 % 2017-01-01
942 safetyguy 1.44 % 0.19 % 2017-01-01
943 Chorizo * 1.44 % -2.73 % 2017-01-09
944 MrJohnRoss 1.43 % -1.14 % 2017-01-01
945 TerpTrader 1.43 % 0.19 % 2017-01-01
946 boricua 1.40 % -0.97 % 2017-01-01
947 JMoody 1.40 % 1.01 % 2017-01-01
948 rudyd3 1.40 % ** 0.25 % 2017-01-01
949 lmcues 1.37 % -1.21 % 2017-01-01
950 Jello 1.36 % 0.97 % 2017-01-01
Rank Username YTD Returns MTD Returns Start Date
951 helpme 1.35 % ** 0.42 % 2017-01-01
952 artie32 1.34 % 0.19 % 2017-01-01
953 talking2jets 1.33 % -0.77 % 2017-01-01
954 Skyrider2020 1.31 % 0.92 % 2017-01-01
955 BamaAF 1.31 % 0.92 % 2017-01-01
956 Semper 1.30 % 0.19 % 2017-01-01
957 marine 1.29 % ** -0.03 % 2017-01-01
958 msls6 1.28 % ** 0.19 % 2017-01-01
959 Xilonen 1.26 % ** 0.49 % 2017-01-01
960 Humberson * 1.24 % 1.24 % 2017-03-21
961 qibovin 1.19 % ** 0.18 % 2017-01-01
962 slowhand1964 1.18 % ** 0.17 % 2017-01-01
963 netforcer 1.16 % 0.05 % 2017-01-01
964 cpowith4 1.15 % -1.13 % 2017-01-01
965 Roymac28 1.14 % 0.15 % 2017-01-01
966 JABS 1.13 % -1.08 % 2017-01-01
967 bighurd51 1.11 % -0.77 % 2017-01-01
968 BorderBlade 1.10 % -0.77 % 2017-01-01
969 Latonia64 1.10 % ** 0.09 % 2017-01-01
970 Robvegas 1.08 % 0.19 % 2017-01-01
971 KinoFish * 1.06 % -1.30 % 2017-01-05
972 Bobcat777 * 1.03 % 1.03 % 2017-03-07
973 Udflyer01 1.02 % 0.55 % 2017-01-01
974 1daybe * 1.01 % -0.97 % 2017-02-06
975 Blarney 1.01 % 0.19 % 2017-01-01
976 UWQLI * 1.01 % 0.65 % 2017-02-17
977 razor * 1.00 % 1.00 % 2017-03-27
978 CTV49 * 1.00 % 1.00 % 2017-03-23
979 Mr_Boooom 0.99 % 0.05 % 2017-01-01
980 Nordic 0.99 % 0.05 % 2017-01-01
981 MarkC 0.99 % ** 0.05 % 2017-01-01
982 cosinecrunchdown 0.99 % ** 0.05 % 2017-01-01
983 Gahiker 0.99 % ** 0.05 % 2017-01-01
984 EZ2K 0.99 % ** 0.05 % 2017-01-01
985 wwiggin2002 0.99 % ** 0.05 % 2017-01-01
986 F-fund 0.99 % 0.05 % 2017-01-01
987 trevor1953 0.99 % ** 0.05 % 2017-01-01
988 MrVela 0.99 % ** 0.05 % 2017-01-01
989 AHarvey311990 0.99 % ** 0.05 % 2017-01-01
990 Muneco803 0.99 % ** 0.05 % 2017-01-01
991 icemanknows 0.99 % ** 0.05 % 2017-01-01
992 Titotsp 0.99 % ** 0.05 % 2017-01-01
993 HALL 0.99 % ** 0.05 % 2017-01-01
994 ContrarianJeff 0.99 % ** 0.05 % 2017-01-01
995 NOVANole 0.99 % ** 0.05 % 2017-01-01
996 nbialek2 0.99 % ** 0.05 % 2017-01-01
997 JACKNAZ0506 0.99 % ** 0.05 % 2017-01-01
998 pmcriaco 0.99 % ** 0.05 % 2017-01-01
999 Litlbear62 0.99 % ** 0.05 % 2017-01-01
1000 milopro 0.99 % ** 0.05 % 2017-01-01
Rank Username YTD Returns MTD Returns Start Date
1001 cologal8 0.99 % ** 0.05 % 2017-01-01
1002 staticoverdub 0.99 % ** 0.05 % 2017-01-01
1003 samNme 0.99 % ** 0.05 % 2017-01-01
1004 ybnormal 0.99 % ** 0.05 % 2017-01-01
1005 keepnitreal 0.99 % ** 0.05 % 2017-01-01
1006 wayne 0.99 % ** 0.05 % 2017-01-01
1007 cenno 0.99 % ** 0.05 % 2017-01-01
1008 dprince 0.99 % ** 0.05 % 2017-01-01
1009 dibyadas 0.99 % ** 0.05 % 2017-01-01
1010 navyseal641 0.99 % ** 0.05 % 2017-01-01
1011 VincentP 0.99 % ** 0.05 % 2017-01-01
1012 Adventurer 0.99 % ** 0.05 % 2017-01-01
1013 azfreed5 0.99 % ** 0.05 % 2017-01-01
1014 Colegan 0.99 % ** 0.05 % 2017-01-01
1015 DINK 0.99 % ** 0.05 % 2017-01-01
1016 DonStar 0.99 % ** 0.05 % 2017-01-01
1017 drifter81 0.99 % ** 0.05 % 2017-01-01
1018 elitesauce 0.99 % ** 0.05 % 2017-01-01
1019 hoodoo 0.99 % ** 0.05 % 2017-01-01
1020 huskerchad 0.99 % ** 0.05 % 2017-01-01
1021 JD797 0.99 % ** 0.05 % 2017-01-01
1022 Labsroc01 0.99 % ** 0.05 % 2017-01-01
1023 Luscombesfly 0.99 % ** 0.05 % 2017-01-01
1024 masedog81 0.99 % ** 0.05 % 2017-01-01
1025 mpdcop 0.99 % ** 0.05 % 2017-01-01
1026 nab0325 0.99 % ** 0.05 % 2017-01-01
1027 pmelchman 0.99 % ** 0.05 % 2017-01-01
1028 SS4183 0.99 % ** 0.05 % 2017-01-01
1029 TSPNotley 0.99 % ** 0.05 % 2017-01-01
1030 vector4tfc 0.99 % ** 0.05 % 2017-01-01
1031 yeelah1 0.99 % ** 0.05 % 2017-01-01
1032 slickcheech 0.99 % ** 0.05 % 2017-01-01
1033 kooke 0.99 % ** 0.05 % 2017-01-01
1034 not_too_shabby 0.99 % ** 0.05 % 2017-01-01
1035 jarhed0689 * 0.98 % 1.83 % 2017-02-22
1036 korekaza 0.97 % 0.31 % 2017-01-01
1037 Longstreet 0.97 % ** 0.17 % 2017-01-01
1038 Bowfish 0.96 % -1.89 % 2017-01-01
1039 NavyGirl88 0.90 % -0.77 % 2017-01-01
1040 wevodau 0.90 % -0.77 % 2017-01-01
1041 llealo53 0.89 % 0.19 % 2017-01-01
1042 hindsnr 0.89 % ** 0.08 % 2017-01-01
1043 scooter0037 0.88 % ** 0.08 % 2017-01-01
1044 Bluewing00 0.87 % 0.19 % 2017-01-01
1045 Tawny27 0.84 % 0.15 % 2017-01-01
1046 Thunderhorse 0.83 % ** 0.10 % 2017-01-01
1047 btreecej 0.82 % ** 0.10 % 2017-01-01
1048 paymetoplay * 0.81 % -0.77 % 2017-01-26
1049 dmanron58 0.80 % 0.09 % 2017-01-01
1050 kobedog 0.78 % 0.26 % 2017-01-01
Rank Username YTD Returns MTD Returns Start Date
1051 road_kill 0.78 % ** 0.12 % 2017-01-01
1052 BigSnack 0.78 % ** 0.12 % 2017-01-01
1053 kdub 0.78 % ** 0.12 % 2017-01-01
1054 RAM56 0.77 % 0.16 % 2017-01-01
1055 CaptainVic 0.77 % ** 0.21 % 2017-01-01
1056 Sippeeboy 0.75 % -0.20 % 2017-01-01
1057 peterson82 0.75 % ** -0.77 % 2017-01-01
1058 parton1080 0.74 % ** 0.13 % 2017-01-01
1059 SMooreAce 0.72 % ** 0.25 % 2017-01-01
1060 userque 0.71 % ** 0.19 % 2017-01-01
1061 EmoDx 0.70 % ** 0.15 % 2017-01-01
1062 Elkhunter 0.70 % ** 0.15 % 2017-01-01
1063 NewBlackShirt 0.69 % 0.03 % 2017-01-01
1064 PessOptimist 0.69 % ** 0.19 % 2017-01-01
1065 hayman 0.68 % 0.02 % 2017-01-01
1066 TLeo96 0.68 % 0.30 % 2017-01-01
1067 williamr 0.68 % ** 0.15 % 2017-01-01
1068 truema666ot 0.68 % ** 0.15 % 2017-01-01
1069 Erie 0.66 % 0.27 % 2017-01-01
1070 kevmanfoo 0.66 % -0.77 % 2017-01-01
1071 Nadeem 0.66 % ** -0.77 % 2017-01-01
1072 bayou4cj 0.66 % ** 0.16 % 2017-01-01
1073 Ship 0.66 % ** 0.16 % 2017-01-01
1074 12squared 0.65 % -0.75 % 2017-01-01
1075 Sam_5_0 * 0.65 % -0.16 % 2017-01-27
1076 Ducksrule 0.62 % -0.61 % 2017-01-01
1077 SayWhat 0.62 % ** 0.18 % 2017-01-01
1078 Wasp49 0.62 % ** 0.20 % 2017-01-01
1079 gman48 0.61 % -1.31 % 2017-01-01
1080 stbondar 0.60 % 0.12 % 2017-01-01
1081 wayne622 * 0.59 % -1.29 % 2017-01-31
1082 Scraps 0.58 % -1.38 % 2017-01-01
1083 Booster 0.58 % -2.77 % 2017-01-01
1084 tmc1045 0.57 % 0.19 % 2017-01-01
1085 grandma 0.57 % 0.19 % 2017-01-01
1086 Captaincuse 0.57 % 0.19 % 2017-01-01
1087 Meteorology 0.57 % 0.19 % 2017-01-01
1088 confusedcookie 0.57 % 0.19 % 2017-01-01
1089 kdraya 0.57 % 0.19 % 2017-01-01
1090 vectorman 0.57 % 0.19 % 2017-01-01
1091 WhiskeyOne 0.57 % 0.19 % 2017-01-01
1092 St3gz 0.57 % 0.19 % 2017-01-01
1093 soyousay 0.57 % 0.19 % 2017-01-01
1094 spinachetr 0.57 % 0.19 % 2017-01-01
1095 spikeyball 0.57 % 0.19 % 2017-01-01
1096 NOLANDER 0.57 % 0.19 % 2017-01-01
1097 Anaconda 0.57 % 0.19 % 2017-01-01
1098 burrocrat 0.57 % ** 0.19 % 2017-01-01
1099 burros-ark 0.57 % ** 0.19 % 2017-01-01
1100 shybear 0.57 % ** 0.19 % 2017-01-01
Rank Username YTD Returns MTD Returns Start Date
1101 jonfresno 0.57 % ** 0.19 % 2017-01-01
1102 angus36 0.57 % ** 0.19 % 2017-01-01
1103 Myemal 0.57 % ** 0.19 % 2017-01-01
1104 Lostdawg 0.57 % ** 0.19 % 2017-01-01
1105 Master_Key 0.57 % ** 0.19 % 2017-01-01
1106 G-fund 0.57 % 0.19 % 2017-01-01
1107 Edna1890 0.57 % ** 0.19 % 2017-01-01
1108 Nick 0.57 % ** 0.19 % 2017-01-01
1109 alcusmc 0.57 % ** 0.19 % 2017-01-01
1110 ssdave 0.57 % ** 0.19 % 2017-01-01
1111 jaybro61 0.57 % ** 0.19 % 2017-01-01
1112 OBXTrader 0.57 % ** 0.19 % 2017-01-01
1113 Groovin 0.57 % ** 0.19 % 2017-01-01
1114 pecos_diamond 0.57 % ** 0.19 % 2017-01-01
1115 Toughmudder 0.57 % ** 0.19 % 2017-01-01
1116 JEWELS1 0.57 % ** 0.19 % 2017-01-01
1117 DansTSP 0.57 % ** 0.19 % 2017-01-01
1118 DouglasL 0.57 % ** 0.19 % 2017-01-01
1119 bobgrem 0.57 % ** 0.19 % 2017-01-01
1120 totallykool 0.57 % ** 0.19 % 2017-01-01
1121 firstpersonpl 0.57 % ** 0.19 % 2017-01-01
1122 kdr1 0.57 % ** 0.19 % 2017-01-01
1123 Congee 0.57 % ** 0.19 % 2017-01-01
1124 PKevin 0.57 % ** 0.19 % 2017-01-01
1125 swordandcross 0.57 % ** 0.19 % 2017-01-01
1126 Boomer 0.57 % ** 0.19 % 2017-01-01
1127 edeckman 0.57 % ** 0.19 % 2017-01-01
1128 mtom938 0.57 % ** 0.19 % 2017-01-01
1129 WorkFE 0.57 % ** 0.19 % 2017-01-01
1130 Mr_Shekels 0.57 % ** 0.19 % 2017-01-01
1131 Zags_Cal 0.57 % ** 0.19 % 2017-01-01
1132 ebikerz 0.57 % ** 0.19 % 2017-01-01
1133 bmneveu 0.57 % ** 0.19 % 2017-01-01
1134 kar_crazy 0.57 % ** 0.19 % 2017-01-01
1135 Kimber411 0.57 % ** 0.19 % 2017-01-01
1136 Heloguy 0.57 % ** 0.19 % 2017-01-01
1137 Stonehands 0.57 % ** 0.19 % 2017-01-01
1138 quickfuze 0.57 % ** 0.19 % 2017-01-01
1139 Skunked 0.57 % ** 0.19 % 2017-01-01
1140 2manyirons 0.57 % ** 0.19 % 2017-01-01
1141 ChiTown 0.57 % ** 0.19 % 2017-01-01
1142 BB-Stacker 0.57 % ** 0.19 % 2017-01-01
1143 Old_Town 0.57 % ** 0.19 % 2017-01-01
1144 wasaki 0.57 % ** 0.19 % 2017-01-01
1145 OKSHEMP 0.57 % ** 0.19 % 2017-01-01
1146 totoylv 0.57 % ** 0.19 % 2017-01-01
1147 zdcman 0.57 % ** 0.19 % 2017-01-01
1148 Greg 0.57 % ** 0.19 % 2017-01-01
1149 Jerry 0.57 % ** 0.19 % 2017-01-01
1150 hummingbird 0.57 % ** 0.19 % 2017-01-01
Rank Username YTD Returns MTD Returns Start Date
1151 freechina 0.57 % ** 0.19 % 2017-01-01
1152 whitemingo 0.57 % ** 0.19 % 2017-01-01
1153 Zepplin4 0.57 % ** 0.19 % 2017-01-01
1154 theo15 0.57 % ** 0.19 % 2017-01-01
1155 robo 0.57 % ** 0.19 % 2017-01-01
1156 JMajor 0.57 % ** 0.19 % 2017-01-01
1157 polanece 0.57 % ** 0.19 % 2017-01-01
1158 LimaFox 0.57 % ** 0.19 % 2017-01-01
1159 trmill2 0.57 % ** 0.19 % 2017-01-01
1160 FlyingTurtle 0.57 % ** 0.19 % 2017-01-01
1161 gumshoe45 0.57 % ** 0.19 % 2017-01-01
1162 lostclimbing 0.57 % ** 0.19 % 2017-01-01
1163 ProfitHitz 0.57 % ** 0.19 % 2017-01-01
1164 Golfdude 0.57 % ** 0.19 % 2017-01-01
1165 Aquaman 0.57 % ** 0.19 % 2017-01-01
1166 tinker1 0.57 % ** 0.19 % 2017-01-01
1167 korrianderson 0.57 % ** 0.19 % 2017-01-01
1168 Deano64 0.57 % ** 0.19 % 2017-01-01
1169 HoustonJoe 0.57 % ** 0.19 % 2017-01-01
1170 kb9nvh 0.57 % ** 0.19 % 2017-01-01
1171 mochatater 0.57 % ** 0.19 % 2017-01-01
1172 mrbossman 0.57 % ** 0.19 % 2017-01-01
1173 Sepr8tr 0.57 % ** 0.19 % 2017-01-01
1174 woodsman 0.57 % ** 0.19 % 2017-01-01
1175 budfox 0.57 % ** 0.19 % 2017-01-01
1176 ExtremeWX 0.57 % ** 0.19 % 2017-01-01
1177 goldwell 0.57 % ** 0.19 % 2017-01-01
1178 mebrow5 0.57 % ** 0.19 % 2017-01-01
1179 minnow 0.57 % ** 0.19 % 2017-01-01
1180 mmk119 0.57 % ** 0.19 % 2017-01-01
1181 RATMONEY 0.57 % ** 0.19 % 2017-01-01
1182 FairShare 0.57 % ** 0.19 % 2017-01-01
1183 beachpeach80 0.57 % ** 0.19 % 2017-01-01
1184 budmaster 0.57 % ** 0.19 % 2017-01-01
1185 sabri11 0.57 % ** 0.19 % 2017-01-01
1186 osseo 0.57 % ** 0.19 % 2017-01-01
1187 INSITES 0.57 % ** 0.19 % 2017-01-01
1188 Kite_Runner 0.57 % ** 0.19 % 2017-01-01
1189 Rotre52 0.57 % ** 0.19 % 2017-01-01
1190 anthonyc220 0.57 % ** 0.19 % 2017-01-01
1191 nsurf9 0.57 % ** 0.19 % 2017-01-01
1192 1peckcd4 0.57 % ** 0.19 % 2017-01-01
1193 2peaches2oranges 0.57 % ** 0.19 % 2017-01-01
1194 agrimm01 0.57 % ** 0.19 % 2017-01-01
1195 Bantley64 0.57 % ** 0.19 % 2017-01-01
1196 BayouTrader 0.57 % ** 0.19 % 2017-01-01
1197 bgoldman 0.57 % ** 0.19 % 2017-01-01
1198 blueskies 0.57 % ** 0.19 % 2017-01-01
1199 BULLonPARADE 0.57 % ** 0.19 % 2017-01-01
1200 BUSHIDO 0.57 % ** 0.19 % 2017-01-01
Rank Username YTD Returns MTD Returns Start Date
1201 cedrus 0.57 % ** 0.19 % 2017-01-01
1202 cgooch 0.57 % ** 0.19 % 2017-01-01
1203 coerik1983 0.57 % ** 0.19 % 2017-01-01
1204 Concabar 0.57 % ** 0.19 % 2017-01-01
1205 Corepuncher 0.57 % ** 0.19 % 2017-01-01
1206 Cortez 0.57 % ** 0.19 % 2017-01-01
1207 crunchy_fo 0.57 % ** 0.19 % 2017-01-01
1208 DA44 0.57 % ** 0.19 % 2017-01-01
1209 Deadmeat99 0.57 % ** 0.19 % 2017-01-01
1210 Ed_the_Fed 0.57 % ** 0.19 % 2017-01-01
1211 FishinFool 0.57 % ** 0.19 % 2017-01-01
1212 flipper180 0.57 % ** 0.19 % 2017-01-01
1213 foolsgold 0.57 % ** 0.19 % 2017-01-01
1214 GFCSorI 0.57 % ** 0.19 % 2017-01-01
1215 GoTech 0.57 % ** 0.19 % 2017-01-01
1216 GR-Turk 0.57 % ** 0.19 % 2017-01-01
1217 Gryle 0.57 % ** 0.19 % 2017-01-01
1218 heathda 0.57 % ** 0.19 % 2017-01-01
1219 heflijl 0.57 % ** 0.19 % 2017-01-01
1220 Highheaven184 0.57 % ** 0.19 % 2017-01-01
1221 hlgalang 0.57 % ** 0.19 % 2017-01-01
1222 huff324 0.57 % ** 0.19 % 2017-01-01
1223 idplakm 0.57 % ** 0.19 % 2017-01-01
1224 jlaufer89 0.57 % ** 0.19 % 2017-01-01
1225 joylynn 0.57 % ** 0.19 % 2017-01-01
1226 JPHAMM1994 0.57 % ** 0.19 % 2017-01-01
1227 kma18 0.57 % ** 0.19 % 2017-01-01
1228 Lthomas 0.57 % ** 0.19 % 2017-01-01
1229 lukepldo 0.57 % ** 0.19 % 2017-01-01
1230 MailmanSean 0.57 % ** 0.19 % 2017-01-01
1231 Maxumman 0.57 % ** 0.19 % 2017-01-01
1232 MXKENNY415 0.57 % ** 0.19 % 2017-01-01
1233 nmilluminati 0.57 % ** 0.19 % 2017-01-01
1234 noe93720 0.57 % ** 0.19 % 2017-01-01
1235 norberto95 0.57 % ** 0.19 % 2017-01-01
1236 POET 0.57 % ** 0.19 % 2017-01-01
1237 Quickstrike 0.57 % ** 0.19 % 2017-01-01
1238 Quinner82 0.57 % ** 0.19 % 2017-01-01
1239 robear 0.57 % ** 0.19 % 2017-01-01
1240 runningfool 0.57 % ** 0.19 % 2017-01-01
1241 sauer228 0.57 % ** 0.19 % 2017-01-01
1242 schofiml 0.57 % ** 0.19 % 2017-01-01
1243 scoker297 0.57 % ** 0.19 % 2017-01-01
1244 scott4401 0.57 % ** 0.19 % 2017-01-01
1245 sgammon 0.57 % ** 0.19 % 2017-01-01
1246 Show-me 0.57 % ** 0.19 % 2017-01-01
1247 smallzjohnson 0.57 % ** 0.19 % 2017-01-01
1248 sstasel 0.57 % ** 0.19 % 2017-01-01
1249 steelhead67 0.57 % ** 0.19 % 2017-01-01
1250 SteveOhh 0.57 % ** 0.19 % 2017-01-01
Rank Username YTD Returns MTD Returns Start Date
1251 tarchdeacon 0.57 % ** 0.19 % 2017-01-01
1252 TaterGator 0.57 % ** 0.19 % 2017-01-01
1253 texasrich 0.57 % ** 0.19 % 2017-01-01
1254 thegemp 0.57 % ** 0.19 % 2017-01-01
1255 timmy00578 0.57 % ** 0.19 % 2017-01-01
1256 TravelinTom 0.57 % ** 0.19 % 2017-01-01
1257 TSPGOD 0.57 % ** 0.19 % 2017-01-01
1258 tw9886 0.57 % ** 0.19 % 2017-01-01
1259 usm1811 0.57 % ** 0.19 % 2017-01-01
1260 vjhillsr 0.57 % ** 0.19 % 2017-01-01
1261 whitebear 0.57 % ** 0.19 % 2017-01-01
1262 WunderDog 0.57 % ** 0.19 % 2017-01-01
1263 yuriria 0.57 % ** 0.19 % 2017-01-01
1264 tip098 0.57 % ** 0.19 % 2017-01-01
1265 notbad 0.57 % ** 0.19 % 2017-01-01
1266 Dmen1218 0.57 % ** 0.19 % 2017-01-01
1267 rocker 0.57 % ** 0.19 % 2017-01-01
1268 borderj 0.57 % ** 0.19 % 2017-01-01
1269 wstuttle 0.57 % ** 0.19 % 2017-01-01
1270 inlineref 0.57 % ** 0.19 % 2017-01-01
1271 PF_chart_C 0.57 % ** 0.19 % 2017-01-01
1272 Sharkman 0.57 % ** 0.19 % 2017-01-01
1273 wealthbuilder 0.57 % ** 0.19 % 2017-01-01
1274 Shirt357 * 0.50 % 0.50 % 2017-03-24
1275 coastalite 0.49 % -0.25 % 2017-01-01
1276 jovialmadness 0.49 % ** 0.19 % 2017-01-01
1277 olddb * 0.49 % ** -0.69 % 2017-01-04
1278 dwwright3rd 0.45 % 0.07 % 2017-01-01
1279 DLBJr 0.43 % -0.15 % 2017-01-01
1280 Butters 0.42 % -1.40 % 2017-01-01
1281 soupydoom 0.41 % -1.82 % 2017-01-01
1282 jpwmasters * 0.41 % 0.41 % 2017-03-20
1283 VANILLAICE * 0.38 % 0.38 % 2017-03-28
1284 Turg * 0.36 % 0.53 % 2017-02-15
1285 tetonshasta * 0.30 % -1.88 % 2017-01-17
1286 lucy 0.30 % -1.20 % 2017-01-01
1287 kjb120169 0.23 % 0.00 % 2017-01-01
1288 TXMightyherc * 0.17 % 0.17 % 2017-03-03
1289 gbloeser * 0.17 % 0.19 % 2017-01-20
1290 VPX11 0.10 % -1.62 % 2017-01-01
1291 dadofsix * 0.05 % 0.05 % 2017-03-22
1292 jrhutch 0.01 % -0.66 % 2017-01-01
1293 Spinks * 0.00 % 0.00 % 2017-03-29
1294 csstovall09 0.00 % ** 0.00 % 2017-01-01
1295 FMS_MITCH -0.05 % -0.44 % 2017-01-01
1296 Aitrus -0.08 % -0.57 % 2017-01-01
1297 roxiemoron -0.12 % -0.50 % 2017-01-01
1298 gatoremt * -0.13 % -0.13 % 2017-03-03
1299 RSJones * -0.14 % -0.14 % 2017-03-08
1300 nugget * -0.14 % -0.14 % 2017-03-14
Rank Username YTD Returns MTD Returns Start Date